Regional Weather Roundup
Issued by NWS

Home | Current Version | Previous Version | Graphics & Text | Print | Product List | Glossary Off
Versions: 1 2 3 4 5 6 7 8 9 10 11 12 13 14 15 16 17 18 19 20 21 22 23 24 25 26 27 28 29 30 31 32 33 34 35 36 37 38 39 40 41 42 43 44 45 46 47 48 49 50

000
ASUS43 KDMX 200101
RWRIA

WEATHER ROUNDUP FOR IOWA
NATIONAL WEATHER SERVICE DES MOINES IA
800 PM CDT WED JUL 19 2017

NOTE: "FAIR" INDICATES FEW OR NO CLOUDS BELOW 12,000 FEET WITH NO
SIGNIFICANT WEATHER AND/OR OBSTRUCTIONS TO VISIBILITY.

* - THESE STATIONS ARE NOT NWS STATIONS...THUS NOT UNDER NWS
QUALITY CONTROL.  THEY ALSO DO NOT REPORT WEATHER SUCH
AS PRECIPITATION OR FOG.

IAZ001>003-012>014-020>022-031>034-043>046-200200-
   NORTHWEST IOWA

CITY           SKY/WX    TMP DP  RH WIND       PRES   REMARKS
CARROLL *      PTCLDY    86  77  74 S7        29.95R HX  97
CHEROKEE *     DRIZZLE   86  77  74 S8        29.94R HX  97
DENISON *      CLOUDY    86  79  79 S9        29.95R HX  99
ORANGE CITY *  DRIZZLE   84  77  79 S18G25    29.84F HX  94
SHELDON *      CLOUDY    82  75  78 CALM      29.87S HX  89
SIOUX CITY     LGT RAIN  88  78  72 S8        29.91R HX 101
SPENCER        CLOUDY    81  73  76 S5        29.90F HX  86
STORM LAKE *   CLOUDY    84  77  79 S9        29.95R HX  94
$$

IAZ055>058-069>071-079>083-090>094-200200-
   SOUTHWEST IOWA

CITY           SKY/WX    TMP DP  RH WIND       PRES   REMARKS
ATLANTIC *     CLEAR     86  79  79 S10       29.94S HX  99
AUDUBON *      CLEAR     84  79  84 S9        29.96S HX  96
CLARINDA *     PTCLDY    86  79  79 S12       29.96F HX  99
COUNCIL BLFS * CLEAR     86  82  89 S10       29.93R HX 105
CRESTON *      MOCLDY    84  77  79 S12G17    29.99F HX  94
HARLAN  *      CLOUDY    86  79  79 S12       29.97R HX  99
LAMONI         PTCLDY    83  77  82 S10       29.99S HX  92
RED OAK *      CLEAR     86  79  79 S13       29.92F HX  99
SHENANDOAH *   CLEAR     88  81  79 S12       29.93F HX 105
$$

IAZ047>049-059>061-072>074-084-200200-
   CENTRAL IOWA

CITY           SKY/WX    TMP DP  RH WIND       PRES   REMARKS
AMES           PTCLDY    86  75  69 S7        29.94S HX  95
ANKENY *       PTCLDY    84  75  74 S6G13     29.97S HX  92
BOONE *        MOCLDY    86  73  66 S8        29.95F HX  93
CHARITON *     CLEAR     86  72  62 S10G17    29.98F HX  92
DES MOINES     MOCLDY    86  76  71 S12       29.95F THUNDER HX  96
GRINNELL*      MOCLDY    85  74  70 SE5       30.01S HX  92
KNOXVILLE *    CLEAR     86  72  62 S6G13     29.98R HX  92
MARSHALLTOWN   CLOUDY    88  74  63 S10       29.96F HX  96
NEWTON *       PTCLDY    82  77  83 S5        29.99R HX  91
PELLA *        CLEAR     86  70  59 S5        30.00S HX  91
PERRY *          N/A     86  77  74 S8        29.94F HX  98
$$

IAZ004>006-015-016-023>025-035-036-200200-
   NORTH CENTRAL IOWA

CITY           SKY/WX    TMP DP  RH WIND       PRES   REMARKS
ALGONA *       CLEAR     77  70  78 SE14G22   29.91F
CLARION *      CLEAR     77  72  83 SE14      29.93F
ESTHERVILLE    CLOUDY    77  69  76 SE9       29.91S
FORT DODGE *   CLEAR     88  72  58 S10       29.93F HX  94
MASON CITY     PTCLDY    73  67  81 SE7       29.94F
FOREST CITY *    N/A     73  68  83 SE8       29.93F
WEBSTER CITY * CLEAR     84  75  74 SE7       29.91F HX  92
IOWA FALLS *     N/A     76  69  80 E7        29.97F
$$

IAZ007>011-017>019-026>030-037>042-050>054-066-200200-
   NORTHEAST IOWA

CITY           SKY/WX    TMP DP  RH WIND       PRES   REMARKS
CEDAR RAPIDS   LGT RAIN  85  77  77 SE6       30.02R HX  95
CHARLES CITY * CLOUDY    73  72  94 E5        29.96F
CLINTON *      CLOUDY    85  76  74 S6        30.03R HX  94
DECORAH *      CLOUDY    68  66  94 E3        29.99R
DUBUQUE        TSTM      68  66  93 SW16G28   30.09F FOG
MONTICELLO *   CLOUDY    72  68  88 N10G20    30.06S
OELWEIN *      CLOUDY    73  73 100 SE7       29.99F
WATERLOO       PTCLDY    74  65  73 SE8       29.96F
$$

IAZ064-065-067-068-078-200200-
   EAST CENTRAL IOWA

CITY           SKY/WX    TMP DP  RH WIND       PRES   REMARKS
DAVENPORT      CLEAR     83  74  74 S7        30.04R HX  89
IOWA CITY      CLOUDY    86  77  74 SE3       30.02R HX  97
MT. PLEASANT * CLEAR     87  72  61 S5        30.01R HX  93
MUSCATINE *    CLEAR     88  75  66 SE5       30.01R HX  97
QUAD CITIES    CLEAR     87  74  64 CALM      30.02R HX  95
$$

IAZ062-063-075>077-085>089-095>099-200200-
   SOUTHEAST IOWA

CITY           SKY/WX    TMP DP  RH WIND       PRES   REMARKS
BURLINGTON     CLEAR     86  76  71 S6        30.01R HX  96
FAIRFIELD *    CLEAR     86  73  66 S7        30.00R HX  93
FORT MADISON * CLEAR     88  77  70 CALM      30.02R HX 100
KEOKUK *       CLOUDY    88  75  66 S6        30.00S HX  97
OSKALOOSA *      N/A     85  71  61 CALM      30.01R HX  90
OTTUMWA        CLEAR     88  70  55 S8        29.99R HX  93
WASHINGTON *   CLEAR     84  75  74 S3        30.02R HX  92
$$

ABBREVIATIONS USED IN REMARKS
   TC - TEMPERATURES IN CELSIUS
  WCI - WIND CHILL INDEX
   HX - HEAT INDEX
  VSB - VISIBILITY
$$





USA.gov is the U.S. government's official web portal to all federal, state and local government web resources and services.